Location: Austin
(30.3000°N, 97.7500°W)
Time: 06:12:12
(UTC-05:00)

Gbstr 26 Del rocket - Pass Details

Date: 16 June 2025
Orbit: 490 x 1223 km, 51.8° (Epoch: 07 July)

Event Time Altitude Azimuth Distance (km) Brightness Sun altitude
Exits shadow 04:12:27 47° 188° (S) 1,227 4.1 -23.9°
Maximum altitude 04:14:09 66° 129° (SE) 1,071 4.1 -23.7°
Drops below altitude 10° 04:21:17 10° 49° (NE) 2,986 7.6 -22.7°
Sets 04:24:15 0° 47° (NE) 4,025 8.7 -22.2°
